TimeEDT,TemperatureF,Dew PointF,Humidity,Sea Level PressureIn,VisibilityMPH,Wind Direction,Wind SpeedMPH,Gust SpeedMPH,PrecipitationIn,Events,Conditions,WindDirDegrees,DateUTC
12:15 AM,61.7,36.9,40,29.93,10.0,SSE,11.5,-,N/A,,Overcast,160,2014-04-07 04:15:00
12:35 AM,61.2,36.9,40,29.93,10.0,SSE,10.4,-,N/A,,Overcast,150,2014-04-07 04:35:00
1:15 AM,60.8,37.2,42,29.93,10.0,SSE,11.5,18.4,N/A,,Overcast,160,2014-04-07 05:15:00
1:35 AM,60.3,37.4,43,29.93,10.0,SSE,9.2,-,N/A,,Overcast,160,2014-04-07 05:35:00
1:55 AM,60.1,37.6,43,29.93,10.0,South,15.0,-,N/A,,Overcast,170,2014-04-07 05:55:00
2:15 AM,59.5,38.3,45,29.92,10.0,SSE,17.3,24.2,N/A,,Overcast,160,2014-04-07 06:15:00
2:35 AM,57.0,41.7,57,29.92,10.0,South,16.1,21.9,N/A,,Overcast,170,2014-04-07 06:35:00
2:55 AM,55.2,42.8,63,29.90,10.0,SSE,15.0,23.0,N/A,,Overcast,160,2014-04-07 06:55:00
3:15 AM,54.0,43.5,68,29.88,10.0,SSE,11.5,17.3,N/A,,Overcast,160,2014-04-07 07:15:00
3:35 AM,52.7,44.4,73,29.88,10.0,SE,12.7,16.1,N/A,,Overcast,140,2014-04-07 07:35:00
3:55 AM,52.3,43.9,73,29.86,10.0,SE,10.4,-,N/A,,Overcast,140,2014-04-07 07:55:00
4:15 AM,52.2,44.6,75,29.87,10.0,SSE,9.2,-,N/A,,Overcast,160,2014-04-07 08:15:00
4:35 AM,51.3,45.5,81,29.84,10.0,SE,8.1,-,N/A,,Overcast,140,2014-04-07 08:35:00
4:55 AM,50.9,45.5,82,29.83,10.0,SE,9.2,-,N/A,,Overcast,140,2014-04-07 08:55:00
5:15 AM,51.3,45.1,80,29.86,10.0,SSE,6.9,-,N/A,,Overcast,160,2014-04-07 09:15:00
5:35 AM,51.3,45.5,81,29.85,10.0,SSE,8.1,-,N/A,,Overcast,150,2014-04-07 09:35:00
5:55 AM,51.3,45.1,80,29.82,10.0,SE,10.4,-,N/A,,Overcast,130,2014-04-07 09:55:00
6:15 AM,50.7,45.7,83,29.82,10.0,SE,8.1,-,N/A,,Overcast,130,2014-04-07 10:15:00
6:35 AM,50.5,45.9,84,29.83,10.0,East,3.5,-,N/A,,Overcast,90,2014-04-07 10:35:00
6:55 AM,50.2,46.4,87,29.81,10.0,ENE,5.8,-,N/A,,Overcast,70,2014-04-07 10:55:00
7:15 AM,50.0,46.4,87,29.82,10.0,ESE,9.2,-,N/A,,Overcast,110,2014-04-07 11:15:00
7:35 AM,49.5,46.4,89,29.80,10.0,ESE,9.2,-,N/A,,Overcast,120,2014-04-07 11:35:00
7:55 AM,49.3,46.8,91,29.79,10.0,ESE,6.9,-,N/A,,Overcast,120,2014-04-07 11:55:00
8:15 AM,49.1,46.9,92,29.79,10.0,SE,4.6,-,N/A,,Overcast,130,2014-04-07 12:15:00
8:35 AM,49.6,47.3,92,29.77,10.0,East,4.6,-,N/A,,Overcast,90,2014-04-07 12:35:00
8:55 AM,50.0,47.5,91,29.76,10.0,SE,6.9,-,N/A,,Overcast,130,2014-04-07 12:55:00
9:15 AM,50.9,48.0,90,29.73,10.0,ESE,6.9,-,N/A,,Overcast,110,2014-04-07 13:15:00
9:35 AM,51.4,48.2,89,29.75,10.0,Calm,Calm,-,N/A,,Mostly Cloudy,0,2014-04-07 13:35:00
9:55 AM,52.7,48.9,87,29.73,10.0,SE,5.8,-,N/A,,Overcast,130,2014-04-07 13:55:00
10:15 AM,52.9,49.1,87,29.72,10.0,SE,8.1,-,N/A,,Overcast,140,2014-04-07 14:15:00
10:35 AM,54.3,49.8,85,29.71,10.0,SE,5.8,-,N/A,,Overcast,140,2014-04-07 14:35:00
10:55 AM,55.9,50.2,81,29.69,10.0,SSE,6.9,-,N/A,,Mostly Cloudy,150,2014-04-07 14:55:00
11:15 AM,56.8,50.4,79,29.68,10.0,SSE,10.4,-,N/A,,Clear,150,2014-04-07 15:15:00
11:35 AM,57.7,50.5,77,29.68,10.0,SSE,11.5,-,N/A,,Clear,160,2014-04-07 15:35:00
11:55 AM,58.3,50.7,76,29.65,10.0,SSE,8.1,-,N/A,,Mostly Cloudy,150,2014-04-07 15:55:00
12:15 PM,59.2,50.9,74,29.64,10.0,SSE,8.1,18.4,N/A,,Overcast,150,2014-04-07 16:15:00
12:35 PM,60.4,51.1,71,29.63,10.0,SE,9.2,-,N/A,,Scattered Clouds,140,2014-04-07 16:35:00
12:55 PM,61.7,51.1,68,29.62,10.0,SSE,15.0,18.4,N/A,,Scattered Clouds,160,2014-04-07 16:55:00
1:15 PM,62.8,50.5,64,29.61,10.0,South,12.7,21.9,N/A,,Scattered Clouds,180,2014-04-07 17:15:00
1:35 PM,62.2,50.0,64,29.60,10.0,SSE,9.2,-,N/A,,Mostly Cloudy,160,2014-04-07 17:35:00
1:55 PM,63.5,50.4,62,29.59,10.0,South,9.2,-,N/A,,Overcast,170,2014-04-07 17:55:00
2:15 PM,64.9,50.7,60,29.57,10.0,SSE,11.5,18.4,N/A,,Overcast,150,2014-04-07 18:15:00
2:35 PM,66.2,50.4,57,29.56,10.0,South,13.8,20.7,N/A,,Overcast,170,2014-04-07 18:35:00
2:55 PM,66.2,50.2,56,29.55,10.0,South,16.1,24.2,N/A,,Overcast,170,2014-04-07 18:55:00
3:15 PM,66.2,50.2,56,29.55,10.0,South,11.5,23.0,N/A,,Overcast,180,2014-04-07 19:15:00
3:35 PM,66.7,50.4,56,29.52,10.0,South,13.8,-,N/A,,Overcast,180,2014-04-07 19:35:00
3:55 PM,67.1,50.7,56,29.52,10.0,South,12.7,-,N/A,,Overcast,170,2014-04-07 19:55:00
4:15 PM,67.1,50.7,56,29.51,10.0,South,10.4,20.7,N/A,,Overcast,180,2014-04-07 20:15:00
4:35 PM,67.5,51.1,56,29.49,10.0,South,10.4,17.3,N/A,,Overcast,180,2014-04-07 20:35:00
4:55 PM,66.7,51.8,59,29.49,10.0,South,8.1,-,N/A,,Overcast,170,2014-04-07 20:55:00
5:15 PM,67.1,51.6,57,29.48,10.0,South,9.2,-,N/A,,Overcast,170,2014-04-07 21:15:00
5:35 PM,68.0,51.8,56,29.47,10.0,South,9.2,17.3,N/A,,Overcast,170,2014-04-07 21:35:00
5:55 PM,68.0,52.0,56,29.46,10.0,South,12.7,17.3,N/A,,Overcast,190,2014-04-07 21:55:00
6:15 PM,68.0,52.5,58,29.46,10.0,South,13.8,17.3,N/A,,Overcast,190,2014-04-07 22:15:00
6:35 PM,64.8,55.0,71,29.47,7.0,WSW,6.9,17.3,N/A,,Overcast,250,2014-04-07 22:35:00
6:55 PM,62.8,56.5,80,29.47,10.0,SW,9.2,-,N/A,,Overcast,230,2014-04-07 22:55:00
7:15 PM,63.0,57.4,82,29.47,10.0,SW,6.9,-,N/A,,Overcast,230,2014-04-07 23:15:00
7:35 PM,63.7,57.6,80,29.47,10.0,SW,5.8,-,N/A,,Overcast,220,2014-04-07 23:35:00
7:55 PM,63.7,57.2,79,29.47,10.0,WSW,6.9,-,N/A,,Overcast,240,2014-04-07 23:55:00
8:15 PM,64.2,56.7,76,29.47,10.0,WSW,8.1,16.1,N/A,,Overcast,240,2014-04-08 00:15:00
8:35 PM,64.4,55.6,73,29.47,10.0,SW,15.0,27.6,N/A,,Scattered Clouds,230,2014-04-08 00:35:00
8:55 PM,64.4,54.7,71,29.47,10.0,SW,11.5,23.0,N/A,,Clear,230,2014-04-08 00:55:00
9:15 PM,64.6,53.6,68,29.48,10.0,SW,13.8,20.7,N/A,,Clear,230,2014-04-08 01:15:00
9:35 PM,64.8,52.3,64,29.49,10.0,WSW,12.7,19.6,N/A,,Clear,240,2014-04-08 01:35:00
9:55 PM,65.3,50.5,59,29.50,10.0,WSW,10.4,24.2,N/A,,Scattered Clouds,240,2014-04-08 01:55:00
10:15 PM,64.8,49.8,58,29.50,10.0,WSW,20.7,27.6,N/A,,Scattered Clouds,250,2014-04-08 02:15:00
10:35 PM,64.6,49.6,58,29.52,10.0,West,24.2,36.8,N/A,,Mostly Cloudy,270,2014-04-08 02:35:00
10:55 PM,57.4,50.7,78,29.55,10.0,WSW,17.3,26.5,N/A,,Overcast,240,2014-04-08 02:55:00
11:15 PM,57.7,46.8,67,29.55,10.0,WSW,20.7,33.4,N/A,,Overcast,240,2014-04-08 03:15:00
11:35 PM,57.4,46.0,66,29.56,10.0,WSW,21.9,32.2,N/A,,Overcast,250,2014-04-08 03:35:00
11:55 PM,56.3,45.5,67,29.58,10.0,WSW,18.4,24.2,N/A,,Mostly Cloudy,250,2014-04-08 03:55:00